#timestamp,LO_Frequency,Hit,StdDev 
1604502015.6,286047002.0,N
1604502035.4,286047000.6,N
1604502055.3,286047003.4,N
1604502075.1,286047004.6,N
1604502095.5,286047005.6,N
1604502115.3,286047006.6,N
1604502135.1,286047007.3,N
1604502155.9,286047007.3,N
1604502175.7,286047005.0,N
1604502195.6,286047005.5,N
1604502215.4,286047005.4,N
1604502235.2,286047005.5,N
1604502255.1,286046999.7,N
1604502256.0,286046999.7,N
1604502275.8,286047003.6,N
1604502295.6,286047001.3,N
1604502315.5,286047002.3,N
1604502335.3,286047000.4,N
1604502355.2,286047002.5,N
1604502375.0,286047001.4,N
1604502375.9,286047001.4,N
1604502395.7,286047003.2,N
1604502415.6,286047004.0,N
1604502435.4,286047005.7,N
1604502455.3,286047003.0,N
1604502475.1,286047005.4,N
1604502476.0,286047005.4,N
1604502495.8,286047005.8,N
1604502515.7,286047001.3,N
1604502535.5,286047001.8,N
1604502555.3,286047003.6,N
1604502575.2,286047006.0,N
1604502595.0,286047004.9,N
1604502595.9,286047004.9,N
1604502615.8,286047007.5,Y
1604502635.6,286047000.3,P
1604502655.4,286047003.7,N
1604502675.3,286046999.7,N
1604502695.1,286046998.6,N
1604502715.9,286046997.0,N
1604502735.7,286046996.5,N
1604502755.5,286046998.6,N
1604502775.4,286047002.4,N
1604502795.2,286047001.0,N
1604502815.0,286047002.5,N
1604502815.9,286047002.5,N
1604502835.8,286047000.5,N
1604502855.6,286046997.0,N
1604502875.5,286046994.6,N
1604502895.3,286046993.7,N
1604502915.1,286046996.3,N
1604502935.9,286046996.3,N
1604502955.7,286046995.3,N
1604502975.5,286046995.4,N
1604502995.4,286046994.1,N
1604503015.2,286046997.6,N
1604503035.1,286046992.9,N
1604503036.0,286046992.9,N
1604503055.8,286046996.2,N
1604503075.6,286046998.6,N
1604503095.5,286046997.2,N
1604503115.3,286046993.5,N
1604503135.2,286046992.7,N
1604503155.9,286046988.9,Y
1604503175.7,286046992.7,P
1604503195.6,286046991.3,P
1604503215.4,286046990.6,P
1604503235.3,286046994.7,N
1604503255.1,286046993.7,N
1604503256.0,286046993.7,N
1604503275.8,286046990.7,Y
1604503295.7,286047000.8,P
1604503315.5,286047002.7,N
1604503335.3,286047001.8,N
1604503355.2,286047004.1,N
1604503375.0,286047011.9,Y
1604503375.9,286047002.0,P
1604503395.8,286047004.2,P
1604503415.6,286047003.6,N
1604503435.4,286047002.6,N
1604503455.3,286047002.0,N
1604503475.1,286047005.4,Y
1604503495.9,286047005.9,P
1604503515.7,286047001.8,N
1604503535.5,286047001.3,N
1604503555.4,286047004.2,N
1604503575.2,286047002.0,N
1604503595.0,286047005.6,Y
1604503595.9,286047005.6,P
1604503615.8,286047002.5,N
1604503635.6,286047001.5,N
1604503655.5,286047004.7,Y
1604503675.3,286047002.2,P
1604503695.1,286047002.6,P
1604503715.9,286046998.7,P
1604503735.7,286046997.4,N
1604503755.5,286046997.8,N
1604503775.4,286046996.4,N
1604503795.2,286046996.0,N
1604503815.1,286046995.0,N
1604503816.0,286046995.0,N
1604503835.8,286046993.6,N
1604503855.6,286046992.0,N
1604503875.5,286046997.1,N
1604503895.3,286046997.2,N
1604503915.1,286046997.9,N
1604503935.9,286046999.1,N
1604503955.7,286046995.8,N
1604503975.6,286047000.5,N
1604503995.4,286046996.9,N
1604504015.2,286046999.0,N
1604504035.1,286047002.5,N
1604504036.0,286047002.5,N
1604504055.8,286046998.2,N
1604504075.7,286046995.5,N
1604504095.5,286046997.4,N
1604504115.3,286046996.8,N
1604504135.2,286046993.3,N
1604504155.9,286046997.5,N
1604504175.7,286046999.6,N
1604504195.6,286046995.2,N
1604504215.4,286046991.9,N
1604504235.3,286046991.0,Y
1604504255.1,286046994.1,P
1604504256.0,286046994.1,P
1604504275.8,286046991.9,P
1604504295.7,286046994.2,N
1604504315.5,286046993.0,Y
1604504335.3,286046998.3,P
1604504355.2,286047002.4,N
1604504375.0,286047002.1,N
1604504375.9,286047002.1,N
1604504395.8,286047001.9,N
1604504415.6,286047003.9,N
1604504435.4,286047001.6,N
1604504455.3,286047001.3,N
1604504475.1,286047002.9,N
1604504495.8,286047005.5,N
1604504515.7,286047005.6,N
1604504535.5,286047005.9,N
1604504555.4,286047003.5,N
1604504575.2,286047002.0,N
1604504595.0,286047000.8,N
1604504595.9,286047000.8,N
1604504615.8,286046998.6,N
1604504635.6,286047000.5,N
1604504655.4,286046999.8,N
1604504675.3,286047000.9,N
1604504695.1,286047000.8,N
1604504715.9,286047003.8,N
1604504735.7,286047003.0,N
1604504755.5,286047005.6,N
1604504775.4,286047005.8,N
1604504795.2,286047005.3,N
1604504815.0,286047003.4,N
1604504815.9,286047003.4,N
1604504835.8,286047001.3,N
1604504855.6,286047003.6,N
1604504875.5,286047003.5,N
1604504895.3,286047003.6,N
1604504915.1,286047004.2,N
1604504935.9,286047004.9,N
1604504955.7,286047003.0,N
1604504975.5,286047003.9,N
1604504995.4,286047003.5,N
1604505015.2,286047003.8,N
1604505035.1,286047004.2,N
1604505036.0,286047004.2,N
1604505055.8,286047003.4,N
1604505075.6,286047005.8,Y
1604505095.5,286047002.5,P
1604505115.3,286047001.7,P
1604505135.1,286047002.2,P
1604505155.9,286047001.5,Y
1604505175.7,286046999.4,P
1604505195.6,286047000.7,N
1604505215.4,286046998.2,N
1604505235.2,286047000.3,N
1604505255.1,286047000.0,N
1604505256.0,286047000.0,N
1604505275.8,286046999.5,N
1604505295.6,286046998.0,N
1604505315.5,286046997.3,N
1604505335.3,286046997.1,N
1604505355.2,286046995.4,Y
1604505375.9,286046997.5,P
1604505395.7,286046995.0,P
1604505415.6,286046993.5,P
1604505435.4,286046997.6,N
1604505455.2,286046998.2,N
1604505475.1,286047004.3,N
1604505476.0,286047004.3,N
1604505495.8,286047004.1,N
1604505515.7,286047000.1,N
1604505535.5,286047002.2,N
1604505555.3,286047001.6,N
1604505575.2,286047000.1,N
1604505595.0,286047000.5,N
1604505595.9,286047000.5,N
